Location: Hawks Ness
(60.2333°N, 1.1667°W)
Time: 11:14:47
(UTC+00:00)

SL-16 R/B - Pass Details

Date: 22 October 2019
Orbit: 985 x 1007 km, 99.4° (Epoch: 19 November)

Event Time Altitude Azimuth Distance (km) Brightness Sun altitude
Exits shadow 01:52:54 27° 330° (NNW) 1,854 4.0 -35.6°
Drops below altitude 10° 01:55:33 10° 338° (NNW) 2,798 5.2 -35.4°
Sets 01:58:05 0° 341° (NNW) 3,750 5.9 -35.2°
